KINEIS-2C

Last updated on Fri Sep 11 2026 00:02:53 GMT+0000 (Coordinated Universal Time)

1 62929U 25028B 26253.40976929 .00000978 00000+0 15824-3 0 9995 2 62929 98.1167 307.8738 0003757 19.2722 340.8627 14.73556125 85162
UTC large
Height (km)
Speed (km/s)
/
Latitude / Longitude
Inclination (degrees)
Orbital Period (minutes)
Azimuth
Elevation
Range (km)
Doppler Factor

Next 0 passes for location: London (51.5072 / 0.1276)

No passes found over London.
KINEIS-2C